When you browse on this site, cookies collect data to enhance your experience and personalize the content and advertising you see.
Visit our Privacy Policy to learn more. By continuing to use the site, you agree to this use of cookies and data.
  • In Latvia
  • List of Countries
  • For 7 days
  • Water Temperature
  • Satellite Maps
  • Weather Map
  • Weather Widgets
  • user-avatar
    Login

    Hourly Weather Zastawne

    Today, 22 February, Friday

    Time Temperature Precipitation Wind Pressure Humidity
    00:00 +4°C° 0.7 mm 4 mps 746 mmHg 89%
    01:00 +4°C° 0.7 mm 4 mps 746 mmHg 90%
    02:00 +4°C° 0 mm 4 mps 746 mmHg 92%
    03:00 +3°C° 0.8 mm 4 mps 746 mmHg 92%
    04:00 +1°C° 0.8 mm 5 mps 746 mmHg 91%
    05:00 0°C° 0.8 mm 5 mps 746 mmHg 91%
    06:00 -3°C° 0.5 mm 6 mps 747 mmHg 89%
    07:00 -4°C° 0.5 mm 6 mps 748 mmHg 86%
    08:00 -5°C° 0 mm 6 mps 749 mmHg 82%
    09:00 -5°C° 0 mm 6 mps 750 mmHg 75%
    10:00 -6°C° 0 mm 7 mps 751 mmHg 68%
    11:00 -7°C° 0 mm 7 mps 753 mmHg 61%
    12:00 -6°C° 0 mm 7 mps 753 mmHg 58%
    13:00 -6°C° 0 mm 7 mps 754 mmHg 55%
    14:00 -6°C° 0 mm 7 mps 755 mmHg 52%
    15:00 -6°C° 0 mm 7 mps 756 mmHg 50%
    16:00 -7°C° 0 mm 7 mps 756 mmHg 49%
    17:00 -7°C° 0 mm 7 mps 757 mmHg 48%
    18:00 -6°C° 0 mm 6 mps 757 mmHg 49%
    19:00 -6°C° 0 mm 6 mps 758 mmHg 50%
    20:00 -7°C° 0 mm 5 mps 759 mmHg 51%
    21:00 -7°C° 0 mm 5 mps 759 mmHg 51%
    22:00 -8°C° 0 mm 6 mps 760 mmHg 51%
    23:00 -8°C° 0 mm 6 mps 760 mmHg 52%

    Tomorrow, 23 February, Saturday

    Time Temperature Precipitation Wind Pressure Humidity
    00:00 -7°C° 0 mm 5 mps 761 mmHg 52%
    01:00 -7°C° 0 mm 5 mps 761 mmHg 53%
    02:00 -7°C° 0 mm 5 mps 762 mmHg 54%
    03:00 -7°C° 0 mm 5 mps 762 mmHg 55%
    04:00 -7°C° 0 mm 5 mps 762 mmHg 56%
    05:00 -8°C° 0 mm 5 mps 763 mmHg 57%
    06:00 -8°C° 0 mm 4 mps 763 mmHg 58%
    07:00 -8°C° 0 mm 4 mps 763 mmHg 59%
    08:00 -8°C° 0 mm 4 mps 764 mmHg 61%
    09:00 -8°C° 0 mm 4 mps 764 mmHg 58%
    10:00 -6°C° 0 mm 3 mps 764 mmHg 55%
    11:00 -5°C° 0 mm 3 mps 764 mmHg 52%
    12:00 -5°C° 0 mm 3 mps 764 mmHg 50%
    13:00 -4°C° 0 mm 3 mps 764 mmHg 48%
    14:00 -4°C° 0 mm 3 mps 764 mmHg 45%
    15:00 -3°C° 0 mm 2 mps 764 mmHg 46%
    16:00 -3°C° 0 mm 2 mps 764 mmHg 46%
    17:00 -3°C° 0 mm 2 mps 764 mmHg 47%
    18:00 -3°C° 0 mm 2 mps 764 mmHg 50%
    19:00 -2°C° 0 mm 1 mps 764 mmHg 54%
    20:00 -2°C° 0 mm 1 mps 764 mmHg 57%
    21:00 -2°C° 0 mm 1 mps 764 mmHg 57%
    22:00 -3°C° 0 mm 0 mps 764 mmHg 57%
    23:00 -3°C° 0 mm 0 mps 764 mmHg 57%

    Day after tomorrow, 24 February, Sunday

    Time Temperature Precipitation Wind Pressure Humidity
    00:00 -3°C° 0 mm 0 mps 763 mmHg 57%
    01:00 -2°C° 0 mm 1 mps 763 mmHg 57%
    02:00 -2°C° 0 mm 1 mps 763 mmHg 57%
    03:00 -2°C° 0 mm 1 mps 763 mmHg 55%
    04:00 -2°C° 0 mm 1 mps 763 mmHg 54%
    05:00 -4°C° 0 mm 2 mps 762 mmHg 52%
    06:00 -3°C° 0 mm 2 mps 762 mmHg 50%
    07:00 -3°C° 0 mm 2 mps 762 mmHg 49%
    08:00 -4°C° 0 mm 3 mps 762 mmHg 47%
    09:00 -2°C° 0 mm 3 mps 762 mmHg 44%
    10:00 -1°C° 0 mm 3 mps 761 mmHg 40%
    11:00 0°C° 0 mm 3 mps 761 mmHg 36%
    12:00 0°C° 0 mm 3 mps 761 mmHg 34%
    13:00 +1°C° 0 mm 3 mps 761 mmHg 32%
    14:00 +1°C° 0 mm 4 mps 761 mmHg 30%
    15:00 +2°C° 0 mm 3 mps 760 mmHg 34%
    16:00 +1°C° 0 mm 3 mps 760 mmHg 38%
    17:00 +2°C° 0 mm 2 mps 760 mmHg 41%
    18:00 +1°C° 0 mm 2 mps 760 mmHg 45%
    19:00 -1°C° 0 mm 2 mps 760 mmHg 48%
    20:00 -2°C° 0 mm 2 mps 760 mmHg 51%
    21:00 -2°C° 0 mm 2 mps 760 mmHg 52%
    22:00 -2°C° 0 mm 2 mps 760 mmHg 53%
    23:00 -2°C° 0 mm 2 mps 760 mmHg 54%

    25 February, Monday

    Time Temperature Precipitation Wind Pressure Humidity
    00:00 -2°C° 0 mm 2 mps 760 mmHg 55%
    01:00 -1°C° 0 mm 3 mps 760 mmHg 56%
    02:00 -1°C° 0 mm 3 mps 760 mmHg 56%
    03:00 -1°C° 0 mm 3 mps 759 mmHg 59%
    04:00 -2°C° 0 mm 3 mps 759 mmHg 61%
    05:00 -3°C° 0 mm 4 mps 759 mmHg 63%
    06:00 -3°C° 0 mm 4 mps 759 mmHg 66%
    07:00 -3°C° 0 mm 4 mps 759 mmHg 68%
    08:00 -2°C° 0 mm 4 mps 759 mmHg 71%
    09:00 -1°C° 0 mm 4 mps 759 mmHg 71%
    10:00 0°C° 0 mm 5 mps 759 mmHg 71%
    11:00 +1°C° 0 mm 5 mps 759 mmHg 71%
    12:00 +2°C° 0 mm 5 mps 759 mmHg 72%
    13:00 +3°C° 0 mm 4 mps 759 mmHg 74%
    14:00 +4°C° 0 mm 4 mps 759 mmHg 75%
    15:00 +4°C° 0 mm 4 mps 758 mmHg 78%
    16:00 +3°C° 0 mm 3 mps 758 mmHg 81%
    17:00 +3°C° 0 mm 3 mps 758 mmHg 84%
    18:00 +2°C° 0 mm 3 mps 758 mmHg 86%
    19:00 +1°C° 0 mm 3 mps 758 mmHg 89%
    20:00 0°C° 0 mm 3 mps 758 mmHg 91%
    21:00 0°C° 0 mm 3 mps 758 mmHg 92%
    22:00 0°C° 0 mm 3 mps 758 mmHg 92%
    23:00 0°C° 0 mm 3 mps 758 mmHg 93%

    26 February, Tuesday

    Time Temperature Precipitation Wind Pressure Humidity
    00:00 0°C° 0 mm 3 mps 757 mmHg 93%
    01:00 -1°C° 0 mm 4 mps 757 mmHg 93%
    02:00 -1°C° 0 mm 4 mps 756 mmHg 93%
    03:00 -1°C° 0 mm 4 mps 755 mmHg 93%
    04:00 -1°C° 0 mm 5 mps 754 mmHg 92%
    05:00 -2°C° 0 mm 6 mps 754 mmHg 92%
    06:00 -1°C° 0 mm 6 mps 753 mmHg 89%
    07:00 -1°C° 0 mm 6 mps 753 mmHg 85%
    08:00 -1°C° 0 mm 6 mps 752 mmHg 82%
    09:00 +1°C° 0 mm 6 mps 752 mmHg 76%
    10:00 +2°C° 0 mm 7 mps 751 mmHg 71%
    11:00 +3°C° 0 mm 7 mps 751 mmHg 66%
    12:00 +4°C° 0 mm 7 mps 750 mmHg 65%
    13:00 +5°C° 0 mm 8 mps 750 mmHg 64%
    14:00 +5°C° 0 mm 8 mps 750 mmHg 63%
    15:00 +5°C° 0 mm 8 mps 750 mmHg 65%
    16:00 +5°C° 0 mm 7 mps 750 mmHg 67%
    17:00 +5°C° 0 mm 7 mps 749 mmHg 69%
    18:00 +4°C° 0 mm 6 mps 750 mmHg 72%
    19:00 +3°C° 0 mm 6 mps 750 mmHg 74%
    20:00 +3°C° 0 mm 6 mps 750 mmHg 76%
    21:00 +2°C° 0 mm 6 mps 750 mmHg 74%
    22:00 +1°C° 0 mm 6 mps 750 mmHg 73%
    23:00 +1°C° 0 mm 6 mps 750 mmHg 71%

    27 February, Wednesday

    Time Temperature Precipitation Wind Pressure Humidity
    00:00 -1°C° 0 mm 6 mps 750 mmHg 73%
    01:00 -1°C° 0 mm 6 mps 750 mmHg 75%
    02:00 -1°C° 0 mm 5 mps 750 mmHg 76%
    03:00 -1°C° 0 mm 5 mps 750 mmHg 78%
    04:00 -1°C° 0 mm 5 mps 750 mmHg 80%
    05:00 -2°C° 0 mm 5 mps 750 mmHg 82%
    06:00 -2°C° 0 mm 5 mps 750 mmHg 82%
    07:00 -2°C° 0 mm 5 mps 750 mmHg 82%
    08:00 -2°C° 0 mm 5 mps 751 mmHg 83%
    09:00 -1°C° 0 mm 5 mps 751 mmHg 80%
    10:00 0°C° 0 mm 5 mps 751 mmHg 77%
    11:00 0°C° 0 mm 5 mps 751 mmHg 74%
    12:00 +1°C° 0 mm 5 mps 751 mmHg 72%
    13:00 +1°C° 0 mm 4 mps 751 mmHg 70%
    14:00 +3°C° 0 mm 4 mps 751 mmHg 69%
    15:00 +3°C° 0 mm 3 mps 751 mmHg 69%
    16:00 +3°C° 0 mm 3 mps 750 mmHg 69%
    17:00 +4°C° 0 mm 2 mps 750 mmHg 69%
    18:00 +3°C° 0 mm 2 mps 750 mmHg 73%
    19:00 +4°C° 0 mm 1 mps 750 mmHg 76%
    20:00 +3°C° 0 mm 1 mps 750 mmHg 80%
    21:00 +2°C° 0 mm 1 mps 750 mmHg 81%
    22:00 +2°C° 0 mm 1 mps 750 mmHg 83%
    23:00 +1°C° 0 mm 2 mps 749 mmHg 85%
    Show more